Theta_e
294 293 293 293 292 292 292 292 293 294 295 295 295 295 295 294 295 294 294 294 295 294 294 295 295 295 295 295 296 295 296 296 298 299 298 299 299 300 300 300 301 301 301 301 301 301 300 297 298 299 299 297 296 297
294 293 293 292 292 292 292 291 291 292 293 294 294 295 295 295 295 295 294 294 295 294 294 295 295 295 296 296 296 296 297 298 298 299 298 299 300 298 299 300 298 300 300 300 299 299 297 297 297 297 297 297 297 297
294 293 293 292 292 292 292 292 291 291 291 292 294 294 294 295 295 295 295 294 294 295 295 295 296 296 295 295 296 297 297 297 298 297 298 299 300 299 300 300 299 299 298 299 299 299 298 297 297 296 296 296 296 296
294 293 293 293 293 293 292 292 291 291 291 290 291 294 294 294 294 295 294 294 294 294 295 295 296 297 297 297 296 296 296 297 297 297 297 298 298 297 298 297 298 297 298 298 298 297 297 296 296 296 296 296 296 297
293 293 293 292 292 292 292 291 291 292 291 290 290 292 294 294 294 294 294 294 294 294 294 294 296 297 297 298 297 296 296 296 296 298 297 298 296 296 295 295 297 296 297 298 298 297 297 297 296 296 296 295 295 295
294 293 292 292 292 292 292 292 291 290 290 290 290 290 292 293 294 294 294 294 294 294 294 295 295 296 298 297 298 297 296 296 297 296 297 296 295 296 297 297 296 295 296 296 297 296 296 296 295 295 295 295 294 294
292 292 292 292 292 292 291 290 290 289 289 289 290 290 291 294 295 294 293 294 294 294 295 296 295 296 297 297 296 297 298 297 296 296 296 296 296 297 297 297 297 296 296 296 295 295 295 295 294 294 294 294 293 293
292 292 292 292 292 291 290 290 288 289 289 289 289 290 292 295 294 294 294 295 293 294 295 296 295 294 296 296 297 296 296 296 296 296 295 296 295 295 297 297 295 295 295 295 294 294 294 293 294 293 292 292 292 292
292 293 292 292 291 290 289 288 288 289 289 289 289 290 295 294 294 294 293 294 293 294 294 294 294 295 295 295 295 295 294 297 294 296 296 295 297 297 297 296 295 295 295 294 294 293 293 293 292 292 291 291 291 291
291 291 291 290 290 289 288 288 288 289 289 289 290 293 294 294 293 294 294 295 294 295 294 294 292 295 295 294 294 293 291 294 295 295 294 296 297 296 295 295 295 294 294 293 293 293 293 293 292 291 291 290 290 290
290 290 289 289 288 288 288 288 288 289 290 289 289 291 292 293 294 295 293 292 291 294 294 294 294 295 295 297 296 291 293 293 295 295 297 297 297 296 294 294 294 294 293 293 293 293 292 292 291 291 291 290 290 291
288 288 288 288 288 288 288 290 290 291 290 290 291 291 292 293 293 291 288 290 293 295 294 295 294 294 294 294 294 292 295 294 295 293 295 296 295 293 293 294 294 293 292 292 292 292 292 291 291 291 290 290 291 292
286 287 287 287 288 287 289 291 292 291 289 291 292 293 291 289 287 289 287 293 292 293 294 293 294 293 293 293 292 294 295 294 293 294 295 295 293 294 294 294 293 292 292 291 292 291 291 291 290 290 290 291 291 292
286 286 286 287 286 286 287 292 292 290 288 291 292 289 289 286 289 291 295 295 293 293 293 293 293 293 291 293 290 294 293 294 295 294 296 295 294 294 294 293 293 292 291 291 291 291 291 291 291 290 291 291 291 292
287 286 286 286 286 288 289 291 291 289 289 291 291 289 289 291 291 292 293 293 294 294 294 293 292 291 292 293 293 294 295 295 295 295 294 293 293 294 294 293 292 291 291 291 291 291 291 291 291 291 291 291 291 291
288 287 287 288 291 290 291 291 288 289 290 291 291 291 290 289 288 289 292 292 293 294 294 293 293 293 293 294 296 294 295 294 294 294 293 293 294 294 293 293 292 292 291 291 290 291 290 289 290 291 291 290 291 291
289 288 287 289 288 288 288 287 290 291 292 293 292 292 291 290 290 292 292 292 293 294 292 292 292 291 293 295 294 295 295 292 293 293 292 293 293 294 294 294 294 292 291 290 290 290 290 289 289 290 290 290 290 291
288 288 288 287 287 287 288 290 292 292 293 293 292 292 291 292 292 292 292 292 293 293 292 294 293 294 294 294 294 293 294 293 293 292 291 290 291 292 292 292 292 292 291 291 290 290 290 289 288 289 289 289 289 290
288 288 288 288 288 289 290 291 292 293 293 293 293 293 292 292 292 292 292 292 293 294 294 294 294 294 294 294 293 292 292 291 291 289 288 289 289 288 288 289 290 290 291 291 291 290 290 289 289 288 287 287 288 288
289 289 289 289 289 290 290 291 292 293 294 293 292 292 292 293 293 293 292 292 292 293 294 295 294 293 293 294 294 293 291 290 289 288 288 287 287 287 287 287 287 288 288 289 290 290 289 289 288 287 286 286 286 287
288 289 289 289 289 290 291 290 291 292 292 292 292 292 292 292 292 292 292 292 292 293 293 293 293 294 293 293 292 291 291 289 288 287 287 286 286 286 286 285 285 286 286 287 288 289 290 289 288 287 286 286 285 284
289 290 291 290 289 291 291 291 290 291 291 291 291 291 291 290 290 291 291 291 291 292 293 293 293 294 293 292 291 290 289 287 286 286 286 285 285 284 284 284 284 285 285 286 287 288 288 289 287 287 285 285 284 284
289 289 289 290 291 291 290 291 292 292 291 290 291 292 291 291 290 289 287 289 290 291 292 292 292 292 292 290 289 288 287 286 285 285 284 284 284 283 283 283 283 283 284 285 286 287 287 287 286 285 284 284 284 284
289 290 290 290 290 287 290 289 290 292 292 292 292 290 290 288 287 287 287 288 288 289 290 291 291 290 289 288 287 286 285 285 284 284 283 283 282 282 283 282 282 283 283 283 285 285 285 285 285 284 284 283 283 284
289 289 289 286 289 289 289 289 291 292 290 290 291 287 287 287 286 286 287 287 287 288 289 289 289 289 289 287 286 285 284 284 283 283 282 281 281 282 282 282 282 282 283 283 283 283 283 283 283 282 282 282 282 283
289 288 288 285 286 289 289 288 288 288 288 287 289 288 286 286 285 285 286 286 286 287 288 289 289 287 286 285 284 283 283 283 282 281 280 280 281 282 282 282 282 282 282 281 282 282 281 281 281 281 281 281 281 282
289 285 287 288 288 289 289 289 289 288 286 287 287 285 286 284 283 284 286 286 287 287 287 288 288 287 286 285 283 282 281 280 280 280 280 280 281 281 282 281 281 281 280 280 280 280 280 280 280 280 280 280 281 282
288 287 287 288 288 289 288 288 288 287 286 287 286 284 284 284 285 285 285 286 286 286 287 287 287 286 285 284 282 281 280 280 280 280 280 280 280 281 281 281 280 280 279 279 279 279 279 279 279 280 280 280 281 281
286 287 287 287 287 289 289 286 286 287 288 286 285 284 285 285 286 286 286 286 286 286 286 286 286 285 283 282 282 281 280 280 280 280 280 280 280 280 280 280 280 279 278 278 278 279 279 279 280 281 281 281 281 280
286 287 287 287 287 288 287 288 288 288 287 287 287 286 286 286 287 287 287 288 288 287 286 286 286 285 284 283 282 281 280 280 280 279 280 280 280 280 280 279 279 278 277 278 278 278 278 279 280 280 280 280 280 280
286 286 287 286 285 286 288 288 287 287 287 286 286 286 286 287 287 287 287 288 288 287 286 286 286 285 284 283 282 281 281 280 280 279 279 280 280 279 279 278 277 278 278 278 278 277 277 277 279 279 279 279 278 277
284 284 282 282 282 285 286 285 286 286 286 285 286 286 285 285 284 286 286 287 287 286 286 285 285 285 285 283 282 281 281 280 280 279 279 280 279 279 279 278 278 278 277 276 276 276 276 276 276 275 275 275 275 275
284 285 285 284 282 281 283 284 283 280 280 279 280 281 282 283 283 285 284 284 284 284 284 284 285 285 285 283 282 281 281 280 279 279 279 279 279 279 279 277 276 276 276 276 275 275 275 275 275 274 274 274 274 274
Wind_Speed
3 5 6 8 10 13 16 17 17 16 15 16 18 19 17 16 17 17 10 7 9 2 7 8 11 8 3 5 3 1 3 3 2 6 5 4 5 5 3 3 1 2 4 3 4 4 8 4 4 4 3 6 8 10
3 3 5 6 9 11 14 15 17 17 17 17 16 17 15 17 19 18 8 5 10 9 7 8 12 16 20 14 8 5 3 1 3 2 2 2 3 3 5 3 3 4 3 2 6 4 2 6 3 2 6 5 9 15
2 3 4 5 8 11 14 15 17 17 18 18 18 16 14 15 19 17 7 7 2 5 13 14 9 6 14 21 22 6 4 4 3 7 3 2 0 1 3 3 3 3 4 2 2 1 4 6 4 2 10 12 16 19
3 4 6 8 10 12 14 15 16 19 19 18 17 17 16 14 15 14 4 4 5 4 2 5 8 9 8 11 15 24 21 8 5 12 2 2 1 2 2 1 2 1 4 3 3 5 3 4 3 11 15 14 20 22
5 6 8 10 11 13 15 17 18 19 19 19 18 16 14 14 12 10 4 2 6 5 3 9 12 7 12 1 7 11 19 14 9 3 2 2 1 1 0 1 3 3 3 3 3 3 1 6 13 17 16 20 21 23
7 8 10 12 14 16 18 20 21 21 19 19 17 17 15 11 8 4 1 2 8 5 5 3 7 5 7 5 2 2 6 8 4 2 2 3 3 2 1 2 3 5 6 4 1 3 7 11 13 11 18 20 20 24
9 11 13 15 16 18 21 22 22 21 20 18 16 15 13 9 5 1 2 6 5 7 3 3 5 4 6 2 1 2 5 4 5 2 2 2 2 3 2 4 5 8 5 3 3 4 4 7 12 17 14 18 20 21
14 15 16 17 19 20 21 21 21 19 18 17 15 12 9 5 2 2 2 6 3 4 3 2 3 5 7 3 0 0 2 3 3 2 2 2 1 2 4 6 1 5 5 2 2 3 6 12 13 16 16 17 20 20
16 17 19 19 20 20 20 20 19 19 17 16 11 7 3 2 1 2 9 2 1 2 1 1 2 3 8 2 1 1 0 1 1 2 2 1 2 5 6 5 9 8 5 3 1 3 5 10 13 15 16 17 19 20
19 19 20 20 19 18 18 18 18 16 17 12 5 1 2 2 8 7 1 2 2 2 3 2 1 3 4 3 1 1 2 1 1 0 1 2 4 9 11 7 8 10 5 1 1 4 8 10 13 16 18 18 18 19
20 19 18 18 17 16 16 17 15 14 14 8 7 1 4 6 2 0 0 1 1 1 3 3 4 3 3 2 1 1 0 1 1 1 2 2 3 3 3 8 8 5 2 1 2 4 8 10 13 16 18 18 18 18
17 17 18 17 15 13 13 12 8 13 13 12 6 5 4 2 0 2 1 1 2 1 1 1 2 4 3 2 1 1 1 1 2 2 1 2 2 7 3 6 6 3 0 0 2 5 7 10 13 14 17 17 17 16
15 14 14 13 12 10 8 5 9 14 16 1 2 1 2 2 3 3 2 1 1 2 1 1 2 2 2 1 1 1 0 3 2 1 2 3 5 7 4 6 5 2 2 1 1 4 6 8 11 12 18 16 14 14
14 14 12 11 11 10 10 8 10 14 6 0 1 4 3 2 4 4 2 2 2 3 1 2 2 1 2 1 1 0 2 2 2 2 3 1 10 11 7 6 5 4 3 3 4 5 6 8 9 10 14 16 14 13
13 13 12 10 11 8 5 8 9 11 3 3 3 4 5 6 5 4 5 3 3 2 2 1 1 1 1 1 2 1 1 3 3 3 1 8 15 7 6 6 6 6 6 6 7 9 7 8 7 8 10 14 12 9
10 11 7 4 5 7 7 9 11 5 3 4 6 3 4 0 3 5 8 6 4 4 2 1 0 1 3 2 3 5 3 4 2 1 7 12 12 7 8 8 8 8 9 10 10 9 6 7 7 7 6 9 11 11
9 7 5 8 9 8 9 9 5 5 5 5 5 13 9 5 8 14 12 7 8 7 2 2 3 8 2 3 3 3 3 1 2 5 7 10 13 14 14 13 11 11 11 12 12 10 6 6 6 6 4 5 8 8
15 8 6 8 9 8 4 8 5 5 7 11 4 10 15 12 10 10 12 11 11 7 6 3 2 4 4 4 3 2 5 5 5 8 8 10 12 11 12 11 12 13 14 16 15 13 10 7 6 7 6 7 8 8
12 8 7 4 2 2 2 5 6 4 10 7 10 13 9 8 16 17 13 14 15 8 5 3 4 4 4 3 3 5 6 4 4 5 6 7 9 11 12 12 13 14 17 18 20 19 14 11 10 8 8 7 7 8
11 10 7 6 8 3 3 4 5 6 3 3 5 6 6 6 9 16 19 16 16 8 5 4 5 5 6 8 8 7 7 5 5 9 9 9 13 16 16 15 16 16 17 16 16 20 19 15 12 8 8 8 7 8
8 6 7 11 12 11 4 4 6 5 6 5 3 4 5 6 7 9 11 17 10 6 4 16 17 15 11 9 8 8 6 6 5 4 7 12 14 14 15 15 16 16 16 15 14 16 22 23 14 9 8 7 8 10
9 10 7 10 8 6 7 8 6 5 4 5 4 5 5 2 4 6 8 9 6 16 21 21 20 18 15 13 12 8 6 5 5 5 6 8 10 13 15 18 20 20 20 18 17 15 18 21 15 8 4 6 9 9
11 9 6 5 8 8 5 5 5 4 3 2 1 2 2 2 3 6 2 6 8 11 15 18 18 13 12 12 10 9 7 6 4 4 6 8 10 12 14 14 15 17 18 17 14 14 12 13 8 3 1 4 7 5
13 6 6 6 10 3 4 4 5 3 4 2 2 3 2 2 3 2 3 4 8 9 13 14 13 15 13 12 11 10 8 6 4 5 6 9 10 10 11 12 12 13 13 11 5 6 7 5 3 1 2 4 5 4
6 7 6 5 8 4 4 3 3 3 3 5 3 3 2 1 1 3 3 4 10 14 15 15 16 15 14 12 10 9 7 6 6 6 7 8 7 7 6 7 9 10 10 9 9 7 5 3 3 3 4 5 6 4
5 10 10 7 4 5 6 4 4 5 2 3 4 1 0 1 2 6 3 4 9 12 19 21 21 18 14 10 9 8 7 7 7 7 7 6 6 5 5 5 6 8 8 8 7 6 5 5 4 5 5 5 5 4
6 7 7 9 5 4 3 2 3 2 4 5 2 2 2 3 5 4 4 4 1 3 10 14 15 13 10 10 8 6 5 5 4 3 4 3 2 1 1 2 4 6 8 7 6 5 5 5 5 6 6 4 4 2
8 6 7 9 6 6 3 3 4 6 4 5 5 4 5 6 3 2 2 0 5 4 6 12 12 11 10 8 6 5 5 5 3 1 1 2 3 2 1 2 5 7 7 6 6 6 5 5 5 5 2 2 1 2
5 7 10 4 3 5 5 7 5 8 7 12 5 4 4 6 4 2 3 2 2 3 7 14 17 16 14 11 8 7 6 5 4 3 3 4 4 4 2 2 3 5 6 5 3 4 5 5 5 5 2 6 4 3
6 14 5 5 5 7 8 15 7 11 11 15 16 11 12 16 16 12 13 16 14 15 14 15 18 19 17 16 11 10 10 7 6 4 3 5 6 5 3 2 2 2 3 3 4 5 5 5 5 6 5 3 4 6
8 14 5 6 4 6 13 15 16 16 15 15 19 19 20 18 20 22 22 22 22 20 21 22 23 23 20 18 15 12 12 10 8 6 4 4 5 5 3 2 2 2 3 3 4 5 7 7 5 3 2 4 5 6
9 10 4 4 3 5 7 5 5 7 10 12 14 18 15 11 9 18 20 21 23 26 27 26 25 24 23 18 11 9 10 10 11 9 6 6 6 5 5 4 2 2 2 3 5 5 5 5 5 5 6 7 7 8
4 5 5 2 2 2 2 3 2 4 4 3 3 3 7 7 5 5 5 8 10 12 15 18 19 18 17 19 16 13 11 10 12 11 8 7 7 6 6 5 5 7 6 4 3 4 5 6 7 7 8 8 9 9
Wind_Direction
72 67 46 27 20 15 14 11 10 6 0 358 355 357 4 6 352 347 331 310 257 253 279 260 240 238 173 195 211 233 305 232 208 212 203 198 227 204 196 187 215 195 167 185 177 218 266 168 123 216 15 353 340 335
126 47 18 15 8 5 6 4 3 0 358 355 353 355 356 354 352 348 346 321 263 226 264 280 267 262 243 245 242 222 247 304 326 283 268 201 184 165 191 209 168 221 207 182 206 214 253 212 222 329 359 352 338 322
209 321 340 345 348 350 353 352 355 353 349 349 349 342 342 348 350 352 349 350 5 241 282 282 298 313 251 248 244 209 226 232 248 347 321 0 134 170 188 209 205 216 177 229 186 140 237 239 253 99 343 324 319 319
272 302 319 326 330 334 337 340 343 344 343 342 342 343 335 337 350 347 1 8 9 323 284 287 328 341 286 241 235 235 246 255 293 321 291 288 292 229 226 10 235 205 163 214 242 271 278 136 69 333 325 329 327 326
277 298 314 322 328 330 332 333 334 334 333 333 336 335 338 330 335 349 28 32 353 344 293 293 325 9 13 48 229 230 233 243 275 278 258 277 289 250 158 226 231 190 205 213 277 88 332 287 318 327 323 331 326 320
278 294 306 315 321 324 326 327 328 328 328 325 325 328 324 325 327 344 295 40 359 350 318 306 328 331 7 31 49 181 212 222 227 234 273 284 258 239 276 251 261 223 213 199 177 292 287 292 309 319 313 317 321 322
278 290 300 308 314 318 321 323 324 325 325 322 318 321 321 318 315 349 48 343 337 324 305 298 326 330 329 308 105 153 190 203 212 228 236 264 280 206 237 242 238 232 205 217 299 331 337 340 320 324 331 327 321 320
280 289 298 304 310 314 317 320 323 327 328 322 316 311 313 305 290 190 269 341 319 295 279 317 287 319 358 355 325 80 187 204 217 263 263 240 249 226 257 242 205 165 174 170 99 360 320 322 332 335 336 336 331 329
279 285 292 300 306 311 316 319 324 330 333 328 319 306 271 202 228 289 311 307 235 266 310 312 294 288 343 354 310 328 219 243 239 246 245 222 211 231 237 210 193 182 182 180 290 330 337 339 343 342 341 338 330 325
272 280 290 298 302 308 314 319 322 330 339 336 338 316 206 268 312 313 128 180 218 229 195 270 271 277 331 342 359 319 10 19 287 303 302 234 261 276 282 249 188 169 175 196 17 350 349 344 346 344 338 331 329 327
272 278 286 292 300 307 315 319 317 329 346 355 350 322 305 311 300 198 25 54 301 252 201 235 227 284 333 306 316 356 292 342 320 323 292 279 279 332 328 153 156 163 139 77 24 353 343 343 338 337 337 338 337 338
269 274 281 289 296 306 316 331 324 331 343 330 318 316 325 319 358 67 312 295 232 258 210 232 279 244 290 296 289 16 334 335 261 351 321 274 272 332 254 182 171 168 69 51 14 345 340 339 331 335 341 337 344 350
272 278 285 285 291 296 300 315 317 322 328 287 256 283 347 311 35 147 237 246 262 205 207 346 322 294 284 303 56 3 346 240 331 349 252 241 302 317 203 192 195 226 291 275 301 314 333 337 335 334 342 347 351 357
264 273 281 286 289 283 278 271 303 327 324 170 219 275 172 266 241 198 194 182 204 190 237 282 278 308 315 320 130 251 255 289 288 250 243 269 338 321 221 206 221 249 259 292 301 314 317 322 336 341 339 354 354 359
263 269 279 289 287 289 260 257 293 315 260 243 196 233 218 228 242 225 226 222 210 226 239 284 320 335 304 296 217 205 252 250 227 239 269 338 333 315 223 225 241 252 253 265 278 287 298 315 324 334 340 353 360 16
256 274 285 238 232 258 258 286 298 245 239 226 232 246 217 155 258 219 207 238 230 212 154 125 154 291 256 209 207 216 211 225 247 321 338 338 335 309 260 253 257 258 264 272 277 287 307 309 331 327 331 341 1 13
237 240 223 226 266 291 284 285 198 224 229 227 238 229 213 245 222 218 212 215 193 165 192 138 205 218 241 229 231 197 219 207 320 337 353 351 338 324 302 281 284 286 273 272 274 281 288 289 297 291 302 333 329 344
231 231 211 248 284 303 277 195 223 231 241 238 227 240 219 227 218 214 215 205 181 192 161 218 189 215 219 222 226 227 206 210 295 302 319 353 1 349 335 313 297 292 281 272 269 272 270 263 270 285 295 293 302 304
239 243 232 236 237 297 254 210 223 256 243 247 248 249 243 242 239 239 229 221 211 191 184 203 241 218 221 213 204 210 216 223 262 295 310 326 324 347 349 340 329 322 317 290 263 257 267 261 263 267 288 299 295 300
233 241 229 209 196 209 257 245 220 256 261 256 243 238 229 233 245 238 227 215 200 181 205 222 218 212 210 227 225 221 217 248 290 302 307 317 327 337 342 340 330 325 322 314 297 257 247 241 242 263 290 289 294 287
222 205 198 198 201 210 262 244 242 242 275 259 270 241 256 244 238 225 218 208 187 209 221 230 240 248 239 239 232 224 239 255 256 273 297 309 326 331 332 336 336 333 327 323 309 293 259 243 233 247 283 284 286 299
179 178 186 197 198 206 249 235 239 293 265 264 270 226 249 236 227 214 190 188 224 233 232 240 247 237 225 223 218 226 245 256 274 292 303 309 320 331 332 332 330 325 320 315 311 307 280 240 214 225 276 285 288 306
177 184 195 215 198 212 248 210 227 221 245 259 276 258 250 237 224 179 235 224 241 234 233 232 236 234 214 199 207 218 232 254 271 293 307 315 325 327 328 333 334 333 327 320 317 308 242 190 179 173 183 302 321 326
196 192 204 210 205 237 202 217 221 239 222 225 227 261 238 232 190 236 246 235 226 225 216 212 203 183 185 195 203 215 227 235 262 293 307 322 328 340 349 354 1 360 356 341 301 166 148 141 127 87 341 344 336 350
179 210 197 219 204 203 196 210 216 206 238 203 219 275 263 202 246 256 238 250 220 217 204 197 195 201 199 201 207 218 226 241 263 282 305 316 323 332 356 12 14 20 28 39 54 62 62 43 20 11 5 10 1 360
212 204 192 195 207 197 189 186 203 213 192 220 231 270 102 122 243 249 235 259 221 211 200 197 194 193 200 209 212 214 232 252 273 287 290 292 298 313 346 358 358 354 360 7 12 18 13 4 360 354 348 340 342 347
210 214 203 205 193 176 191 201 181 161 188 212 212 168 156 226 239 252 280 272 237 220 209 206 205 205 206 206 209 230 234 231 247 275 282 269 261 269 4 13 11 6 1 354 348 344 341 343 344 342 347 341 338 333
212 176 174 183 189 181 161 191 197 204 217 203 150 184 203 208 247 283 295 149 165 151 176 189 196 206 212 207 210 206 197 198 221 287 171 182 175 163 128 53 7 355 350 354 2 14 26 16 354 342 356 349 95 105
201 189 163 160 152 194 212 195 212 216 208 181 180 206 226 223 223 113 101 100 209 209 203 200 203 207 207 203 199 203 200 204 217 218 208 197 189 187 189 329 352 348 353 356 12 29 24 18 25 0 141 138 123 36
199 179 171 181 194 212 221 201 223 238 232 230 240 243 247 253 266 262 272 276 271 264 263 242 227 217 217 212 207 207 211 217 225 233 235 222 201 199 223 281 340 7 15 65 65 40 38 66 89 104 104 82 26 3
165 179 191 196 225 237 247 248 246 251 252 250 248 248 252 265 269 269 268 268 263 255 246 235 227 223 219 211 208 211 212 218 215 212 204 198 189 190 212 206 138 98 81 74 53 50 62 77 87 76 16 355 355 356
179 181 172 200 256 245 254 236 235 238 253 245 252 250 249 253 261 276 258 249 244 241 242 240 233 228 224 217 211 206 217 216 209 194 182 173 167 170 175 180 170 153 139 101 82 64 49 42 35 19 3 353 347 343
187 187 191 201 304 298 218 216 260 295 265 265 264 245 235 231 237 255 256 255 248 245 246 244 235 225 221 209 203 214 216 206 193 191 190 185 179 173 168 167 154 140 127 107 69 37 17 7 1 356 350 344 341 338